User: anonymous   Login
Location: Unspecified
(0.0000°N, 0.0000°E)
Time: 04:15:08
(UTC+00:00)
Language:

STARLINK-32693 - Orbit

View from above orbital plane
View from above orbital plane
View from above satellite
View from above satellite

Ground track
Ground track

The orbit is defined by the following mean orbital elements,

1 62437U          26145.55321593 +.00000000 +00000-0 +84520-3 0 00008
2 62437  53.1586 335.5768 0000831  82.5977 277.5118 15.30254219    02
Epoch (UTC): 25 May 2026 13:16:37
Eccentricity: 0.0000831
inclination: 53.1586°
perigee height: 474 km
apogee height: 476 km
right ascension of ascending node: 335.5768°
argument of perigee: 82.5977°
revolutions per day: 15.30254219
mean anomaly at epoch: 277.5118°

The dashed part of the orbit path shows where the satellite is in the earth's shadow,  

DLR